Weather History for KINS - March, 2013

Change the Weather History Date:

Sunday, March 10, 2013

  Actual Average (KDRA) Record (KDRA)
Temperature  
Mean Temperature 48 °F -  
Max Temperature 61 °F 63 °F 80 °F (1997)
Min Temperature 34 °F 38 °F 33 °F (2006)
Degree Days  
Heating Degree Days 18    
Moisture  
Dew Point 24 °F    
Average Humidity 44    
Maximum Humidity 76    
Minimum Humidity 16    
Precipitation  
Precipitation 0.00 in - - ()
Sea Level Pressure  
Sea Level Pressure 30.28 in    
Wind  
Wind Speed 5 mph (West)    
Max Wind Speed 10 mph    
Max Gust Speed -    
Visibility 10 miles    
Events      
Averages and records for this station are not official NWS values.
T = Trace of Precipitation, MM = Missing Value Source: NWS Daily Summary

Daily Weather History Graph

Daily Weather History Graph

Search for Another Location

Airport or City:

Trip Planner

Search our weather history database for the weather conditions in past years. The results will help you decide how hot, cold, wet, or windy it might be!

Date:

Astronomy

Mar. 10, 2013 Rise Set
Actual Time 7:00 AM PDT 6:45 PM PDT
Civil Twilight 6:34 AM PDT 7:11 PM PDT
Nautical Twilight 6:04 AM PDT 7:41 PM PDT
Astronomical Twilight 5:34 AM PDT 8:11 PM PDT
Moon 6:01 AM PDT (3/10) 5:58 PM PDT (3/10)
Length of Visible Light 12h 37m
Length of Day
11h 45m
Waning Crescent, 1% of the Moon is Illuminated
Mar 10
Waning Crescent
Mar 11
New
Mar 19
First Quarter
Mar 27
Full
Apr 2
Last Quarter

Hourly Weather History & Observations

Time (PDT) Temp. Windchill Dew Point Humidity Pressure Visibility Wind Dir Wind Speed Gust Speed Precip Events Conditions
12:58 AM 45.9 °F 42.3 °F 23.4 °F 41% 30.25 in 10.0 mi SSW 6.9 mph - N/A   Clear
1:58 AM 38.5 °F 32.1 °F 28.6 °F 68% 30.26 in 10.0 mi West 9.2 mph - N/A   Clear
3:58 AM 38.7 °F 31.8 °F 27.0 °F 63% 30.27 in 10.0 mi West 10.4 mph - N/A   Clear
4:58 AM 37.2 °F 34.7 °F 27.3 °F 67% 30.28 in 10.0 mi Variable 3.5 mph - N/A   Clear
5:58 AM 37.0 °F - 26.4 °F 65% 30.29 in 10.0 mi WSW 2.3 mph - N/A   Clear
6:58 AM 34.0 °F - 27.1 °F 76% 30.31 in 10.0 mi Calm Calm - N/A   Clear
7:58 AM 36.7 °F - 27.3 °F 69% 30.34 in 10.0 mi WNW 2.3 mph - N/A   Clear
8:58 AM 41.7 °F - 30.2 °F 64% 30.36 in 10.0 mi West 2.3 mph - N/A   Clear
9:58 AM 48.7 °F - 22.5 °F 36% 30.37 in 10.0 mi ENE 2.3 mph - N/A   Clear
10:58 AM 51.6 °F - 21.6 °F 31% 30.35 in 10.0 mi Variable 2.3 mph - N/A   Clear
11:58 AM 54.7 °F - 17.1 °F 23% 30.33 in 10.0 mi NNE 1.2 mph - N/A   Clear
12:58 PM 58.1 °F - 15.8 °F 19% 30.30 in 10.0 mi ENE 2.3 mph - N/A   Clear
1:58 PM 58.8 °F - 14.5 °F 18% 30.28 in 10.0 mi NNW 3.5 mph - N/A   Clear
2:58 PM 59.7 °F - 14.7 °F 17% 30.26 in 10.0 mi Variable 2.3 mph - N/A   Clear
3:58 PM 61.5 °F - 14.9 °F 16% 30.24 in 10.0 mi North - - N/A   Clear
4:58 PM 61.2 °F - 15.4 °F 17% 30.23 in 10.0 mi SE 2.3 mph - N/A   Clear
5:58 PM 61.0 °F - 16.9 °F 18% 30.22 in 10.0 mi ESE 2.3 mph - N/A   Clear
6:58 PM 59.9 °F - 20.5 °F 22% 30.22 in 10.0 mi ESE 3.5 mph - N/A   Clear
7:58 PM 55.8 °F - 25.2 °F 31% 30.24 in 10.0 mi WNW 1.2 mph - N/A   Clear
8:58 PM 50.0 °F - 32.9 °F 52% 30.24 in 10.0 mi West 6.9 mph - N/A   Clear
9:58 PM 45.7 °F - 33.1 °F 61% 30.25 in 10.0 mi West 2.3 mph - N/A   Clear
10:58 PM 46.0 °F 42.5 °F 28.6 °F 51% 30.25 in 10.0 mi WNW 6.9 mph - N/A   Clear
11:58 PM 42.6 °F 39.0 °F 33.3 °F 69% 30.25 in 10.0 mi WSW 5.8 mph - N/A   Clear
12:58 AM 41.7 °F 37.3 °F 31.5 °F 67% 30.24 in 10.0 mi SW 6.9 mph - N/A   Clear